| time (UTC) | temp F | wind direction | speed MPH | gust MPH | rain 1hr in | rain 24hr in | rain mn in | humidity % | barometer mb |
| 20260505204504 | 38 | 58 | 3.0 | 5.0 | 0.00 | 0.00 | 0.00 | 90 | 1008.8 |
| 20260505203004 | 39 | 70 | 2.0 | 3.0 | 0.00 | 0.00 | 0.00 | 89 | 1008.8 |
| 20260505201504 | 39 | 71 | 2.0 | 5.0 | 0.00 | 0.00 | 0.00 | 88 | 1008.8 |
| 20260505194504 | 42 | 98 | 0.0 | 0.0 | 0.00 | 0.00 | 0.00 | 85 | 1008.3 |
| 20260505193004 | 43 | 98 | 0.0 | 0.0 | 0.00 | 0.00 | 0.00 | 84 | 1008.3 |
| 20260505191504 | 44 | 98 | 0.0 | 0.0 | 0.00 | 0.00 | 0.00 | 81 | 1008.2 |
| 20260505184504 | 50 | 98 | 1.0 | 5.0 | 0.00 | 0.00 | 0.00 | 71 | 1008.1 |
| 20260505181503 | 52 | 110 | 2.0 | 8.0 | 0.00 | 0.00 | 0.00 | 65 | 1007.9 |
| 20260505180004 | 53 | 103 | 1.0 | 7.0 | 0.00 | 0.00 | 0.00 | 63 | 1007.5 |
| 20260505174504 | 54 | 109 | 1.0 | 10.0 | 0.00 | 0.00 | 0.00 | 61 | 1007.5 |
| 20260505173003 | 55 | 100 | 5.0 | 12.0 | 0.00 | 0.00 | 0.00 | 59 | 1007.5 |
| 20260505171505 | 55 | 101 | 6.0 | 10.0 | 0.00 | 0.00 | 0.00 | 57 | 1007.3 |
| 20260505170003 | 56 | 76 | 6.0 | 12.0 | 0.00 | 0.00 | 0.00 | 52 | 1007.3 |
| 20260505164504 | 57 | 79 | 7.0 | 13.0 | 0.00 | 0.00 | 0.00 | 50 | 1007.3 |
| 20260505163004 | 58 | 63 | 6.0 | 12.0 | 0.00 | 0.00 | 0.00 | 44 | 1007.3 |
| 20260505161503 | 58 | 61 | 3.0 | 12.0 | 0.00 | 0.00 | 0.00 | 36 | 1007.3 |
| 20260505153004 | 63 | 84 | 3.0 | 9.0 | 0.00 | 0.00 | 0.00 | 27 | 1007.1 |
| 20260505151503 | 63 | 302 | 4.0 | 14.0 | 0.00 | 0.00 | 0.00 | 25 | 1007.1 |
| 20260505124505 | 64 | 285 | 6.0 | 14.0 | 0.00 | 0.00 | 0.00 | 32 | 1007.2 |
| 20260505123004 | 63 | 322 | 7.0 | 13.0 | 0.00 | 0.00 | 0.00 | 36 | 1007.2 |
| 20260505121503 | 61 | 307 | 2.0 | 14.0 | 0.00 | 0.00 | 0.00 | 36 | 1007.2 |
| 20260505114503 | 63 | 266 | 4.0 | 16.0 | 0.00 | 0.00 | 0.00 | 38 | 1007.1 |
| 20260505111503 | 63 | 242 | 10.0 | 17.0 | 0.00 | 0.00 | 0.00 | 40 | 1007.2 |
| 20260505101504 | 61 | 257 | 5.0 | 16.0 | 0.00 | 0.00 | 0.00 | 43 | 1007.2 |
| 20260505094505 | 60 | 247 | 11.0 | 18.0 | 0.00 | 0.00 | 0.00 | 44 | 1007.3 |
| 20260505093004 | 61 | 291 | 6.0 | 15.0 | 0.00 | 0.00 | 0.00 | 45 | 1007.3 |
| 20260505091504 | 61 | 303 | 9.0 | 14.0 | 0.00 | 0.00 | 0.00 | 47 | 1007.3 |
| 20260505090005 | 59 | 286 | 6.0 | 17.0 | 0.00 | 0.00 | 0.00 | 50 | 1007.3 |
| 20260505084503 | 59 | 278 | 6.0 | 15.0 | 0.00 | 0.01 | 0.00 | 54 | 1007.4 |
| 20260505081503 | 57 | 248 | 9.0 | 15.0 | 0.00 | 0.01 | 0.00 | 58 | 1007.4 |
| 20260505080004 | 56 | 273 | 7.0 | 16.0 | 0.00 | 0.01 | 0.00 | 60 | 1007.4 |
| 20260505074503 | 57 | 263 | 7.0 | 16.0 | 0.00 | 0.01 | 0.00 | 60 | 1007.4 |
| 20260505073004 | 56 | 263 | 4.0 | 12.0 | 0.00 | 0.01 | 0.00 | 63 | 1007.5 |
| 20260505071504 | 55 | 250 | 5.0 | 15.0 | 0.00 | 0.01 | 0.00 | 66 | 1007.5 |
| 20260505070004 | 55 | 276 | 7.0 | 18.0 | 0.00 | 0.01 | 0.00 | 65 | 1007.5 |
| 20260505064503 | 54 | 241 | 5.0 | 15.0 | 0.00 | 0.01 | 0.00 | 67 | 1007.3 |
| 20260505063004 | 53 | 257 | 7.0 | 15.0 | 0.00 | 0.01 | 0.00 | 69 | 1007.3 |
| 20260505061504 | 52 | 260 | 10.0 | 15.0 | 0.00 | 0.01 | 0.00 | 71 | 1007.4 |
| 20260505060003 | 51 | 271 | 8.0 | 13.0 | 0.00 | 0.01 | 0.00 | 72 | 1007.4 |
| 20260505054504 | 50 | 267 | 10.0 | 17.0 | 0.00 | 0.01 | 0.00 | 76 | 1007.4 |
| 20260505053004 | 49 | 268 | 9.0 | 13.0 | 0.00 | 0.01 | 0.00 | 79 | 1007.4 |
| 20260505051504 | 48 | 277 | 5.0 | 12.0 | 0.00 | 0.01 | 0.00 | 85 | 1007.4 |
| 20260505041504 | 38 | 247 | 1.0 | 5.0 | 0.00 | 0.07 | 0.00 | 95 | 1007.1 |
| 20260505040005 | 37 | 240 | 2.0 | 5.0 | 0.00 | 0.07 | 0.00 | 95 | 1007.1 |
| 20260505034504 | 36 | 237 | 4.0 | 7.0 | 0.00 | 0.07 | 0.00 | 94 | 1007.0 |
| 20260505033004 | 36 | 227 | 4.0 | 7.0 | 0.00 | 0.07 | 0.00 | 94 | 1006.8 |
| 20260505031503 | 36 | 229 | 3.0 | 6.0 | 0.00 | 0.08 | 0.00 | 93 | 1006.8 |
| 20260505030004 | 36 | 223 | 5.0 | 6.0 | 0.00 | 0.08 | 0.00 | 93 | 1006.7 |
| 20260505024504 | 36 | 230 | 3.0 | 5.0 | 0.00 | 0.08 | 0.00 | 92 | 1006.7 |
| 20260505023004 | 37 | 229 | 3.0 | 6.0 | 0.00 | 0.09 | 0.00 | 91 | 1006.7 |
| 20260505014504 | 40 | 246 | 3.0 | 6.0 | 0.00 | 0.09 | 0.00 | 87 | 1006.7 |
| 20260505011503 | 43 | 247 | 5.0 | 9.0 | 0.00 | 0.09 | 0.00 | 85 | 1006.7 |
| 20260505010004 | 43 | 260 | 6.0 | 12.0 | 0.00 | 0.09 | 0.00 | 83 | 1006.6 |
| 20260505004504 | 44 | 263 | 3.0 | 7.0 | 0.00 | 0.09 | 0.00 | 80 | 1006.6 |
| 20260505003004 | 45 | 257 | 5.0 | 8.0 | 0.00 | 0.09 | 0.00 | 79 | 1006.7 |
| 20260505000003 | 46 | 248 | 6.0 | 9.0 | 0.00 | 0.09 | 0.00 | 76 | 1006.7 |
| 20260504234504 | 46 | 257 | 5.0 | 10.0 | 0.00 | 0.09 | 0.00 | 75 | 1006.7 |
| 20260504231503 | 47 | 255 | 7.0 | 12.0 | 0.00 | 0.09 | 0.00 | 73 | 1006.8 |
| 20260504230005 | 47 | 247 | 7.0 | 12.0 | 0.00 | 0.09 | 0.00 | 72 | 1006.9 |
| 20260504224503 | 47 | 251 | 5.0 | 9.0 | 0.00 | 0.09 | 0.00 | 71 | 1006.9 |
| 20260504223004 | 48 | 252 | 4.0 | 10.0 | 0.00 | 0.09 | 0.00 | 69 | 1007.1 |
| 20260504221504 | 49 | 260 | 7.0 | 12.0 | 0.00 | 0.09 | 0.00 | 68 | 1007.1 |
| 20260504220003 | 49 | 249 | 6.0 | 10.0 | 0.00 | 0.09 | 0.00 | 68 | 1007.1 |
| 20260504214503 | 50 | 246 | 4.0 | 9.0 | 0.00 | 0.09 | 0.09 | 68 | 1007.1 |
| 20260504213004 | 51 | 231 | 5.0 | 9.0 | 0.00 | 0.09 | 0.09 | 66 | 1007.1 |
| 20260504210004 | 52 | 252 | 7.0 | 12.0 | 0.00 | 0.09 | 0.09 | 63 | 1006.5 |